Regional Weather Roundup
Issued by NWS Kansas City/Pleasant Hill, MO

Home | Current Version | Previous Version | Text Only | Print | Product List | Glossary On
Versions: 1 2 3 4 5 6 7 8 9 10 11 12 13 14 15 16 17 18 19 20 21 22 23 24 25 26 27
000
ASUS43 KEAX 290210
RWREAX

WEATHER ROUNDUP FOR EASTERN KANSAS AND NORTHWEST MISSOURI
NATIONAL WEATHER SERVICE KANSAS CITY/PLEASANT HILL MO
900 PM CDT SAT MAY 28 2016

KSZ040-057-103>105-MOZ028-029-037-043-290300-
...KANSAS CITY METROPOLITAN AREA...

CITY           SKY/WX    TMP DP  RH WIND       PRES   REMARKS
K.C. INTL      PTCLDY    68  60  75 SW5       29.95R
K.C. DOWNTOWN  CLEAR     73  58  59 SW5       29.94R
LEES SUMMIT    CLEAR     70  60  70 SW5       29.96R
OLATHE - IXD   CLEAR     70  60  70 SW6       29.97R
OLATHE - OJC   CLEAR     70  59  68 SW3       29.97R
LAWRENCE       CLEAR     71  59  65 SW3       29.95R

$$

MOZ001>008-011>017-020>025-030>033-038>040-044>046-053-054-290300-
...NORTHERN AND CENTRAL MISSOURI...

CITY           SKY/WX    TMP DP  RH WIND       PRES   REMARKS
ST. JOSEPH     CLEAR     71  60  68 SW6       29.93R
MOSBY          CLEAR     72  59  64 CALM      29.95R
WARRENSBURG    PTCLDY    68  61  77 SW5       29.96R
WHITEMAN AFB   CLEAR     71  63  76 W6        29.95R
CLINTON        CLEAR     72  63  73 SW3       29.97R
SEDALIA        CLEAR     73  62  68 W6        29.97R
WARSAW         NOT AVBL
CHILLICOTHE      N/A     69  61  75 CALM      29.94R
KIRKSVILLE     CLEAR     69  58  67 SW5       29.94R

$$

MOZ041-047>049-056>058-063>065-088>090-097-290300-
...EASTERN AND SOUTHERN MISSOURI...

CITY           SKY/WX    TMP DP  RH WIND       PRES   REMARKS
ST. LOUIS INTL MOCLDY    79  66  64 S13G20    29.95R
SPIRIT OF STL  CLOUDY    77  69  76 SW5       29.94R
COLUMBIA       CLOUDY    72  63  73 SW5       29.97R
JEFFERSON CITY CLOUDY    76  62  62 VRB3      29.95R
ROLLA          CLOUDY    69  64  84 SE7       30.00R
SPRINGFIELD    CLEAR     72  62  71 W7        29.99R
BRANSON        PTCLDY    75  64  69 W5        30.02R
JOPLIN         CLEAR     69  63  81 S6        29.99R
WEST PLAINS    PTCLDY    73  65  75 S6        30.02S

$$

IAZ060-094-KSZ022-034>040-054-083-096-NEZ052-066-093-290300-
...KANSAS...SOUTHEAST NEBRASKA AND IOWA...

CITY           SKY/WX    TMP DP  RH WIND       PRES   REMARKS
TOPEKA         CLEAR     72  58  61 SW3       29.95R
MANHATTAN      CLEAR     69  58  67 SW5       29.95R
EMPORIA        CLEAR     70  61  73 SW3       29.97R
CHANUTE        CLEAR     71  63  75 S5        29.97R
WICHITA        CLEAR     76  57  51 NW3       29.97R
OMAHA          PTCLDY    69  56  62 NW9       29.90R
LINCOLN        CLEAR     72  56  57 W5        29.93R
FALLS CITY     CLEAR     70  59  68 SW6       29.92R
LAMONI         CLEAR     66  59  78 SW9       29.91R
DES MOINES     PTCLDY    69  57  65 SW12      29.85S

$$





USA.gov is the U.S. government's official web portal to all federal, state and local government web resources and services.